Вернуться в каталог

HEAD-3B

АктивенСвязьLEO
NORAD 57627·PAYLOAD·🇨🇳 China

Запущен Aug 14, 2023 с Xichang Satellite Launch Center

Loading…

Ближайшие Пролёты (ближайшие 24 часа)

TLE

СвежийSource: Space-Track

Эпоха: Sep 14, 2026, 10:05 UTC

1 57627U 23121B   26257.42016586  .00000374  00000-0  10647-3 0  9995
2 57627  45.0016 225.4487 0006137   0.1119 359.9739 14.61695824164727

Отслеживайте HEAD-3B в реальном времени с AllMySat

Download on the App Store